TimeEST,TemperatureF,Dew PointF,Humidity,Sea Level PressureIn,VisibilityMPH,Wind Direction,Wind SpeedMPH,Gust SpeedMPH,PrecipitationIn,Events,Conditions,WindDirDegrees,DateUTC
12:53 AM,17.1,14.0,88,29.85,8.0,NW,5.8,-,N/A,,Mostly Cloudy,310,2013-12-15 05:53:00
1:53 AM,18.0,15.1,88,29.85,8.0,WNW,5.8,-,N/A,,Overcast,300,2013-12-15 06:53:00
2:18 AM,19.4,15.8,86,29.81,7.0,WNW,6.9,-,N/A,,Overcast,290,2013-12-15 07:18:00
2:33 AM,19.4,15.8,86,29.81,7.0,West,5.8,-,N/A,,Overcast,280,2013-12-15 07:33:00
2:53 AM,19.0,16.0,88,29.85,7.0,West,6.9,-,N/A,,Overcast,280,2013-12-15 07:53:00
3:32 AM,19.4,15.8,86,29.82,7.0,West,9.2,-,N/A,,Overcast,280,2013-12-15 08:32:00
3:53 AM,19.9,16.0,85,29.86,7.0,West,9.2,-,N/A,,Overcast,270,2013-12-15 08:53:00
4:22 AM,19.4,15.8,86,29.81,8.0,West,6.9,-,N/A,,Overcast,270,2013-12-15 09:22:00
4:53 AM,19.9,16.0,85,29.85,9.0,West,6.9,-,N/A,,Overcast,260,2013-12-15 09:53:00
5:02 AM,19.4,15.8,86,29.81,9.0,West,6.9,-,N/A,,Overcast,260,2013-12-15 10:02:00
5:36 AM,19.4,15.8,86,29.81,9.0,West,5.8,-,N/A,,Overcast,270,2013-12-15 10:36:00
5:53 AM,19.9,16.0,85,29.85,6.0,WSW,5.8,-,0.00,Snow,Light Snow,250,2013-12-15 10:53:00
6:30 AM,19.4,15.8,86,29.80,4.0,SW,3.5,-,0.00,Snow,Light Snow,220,2013-12-15 11:30:00
6:53 AM,19.9,16.0,85,29.83,4.0,Calm,Calm,-,0.00,Snow,Light Snow,0,2013-12-15 11:53:00
7:49 AM,19.4,15.8,86,29.79,2.5,SSW,5.8,-,0.00,Snow,Light Snow,210,2013-12-15 12:49:00
7:53 AM,19.9,16.0,85,29.83,2.5,SSW,8.1,-,0.00,Snow,Light Snow,210,2013-12-15 12:53:00
8:16 AM,19.4,15.8,86,29.79,3.0,SW,6.9,-,0.00,Snow,Light Snow,220,2013-12-15 13:16:00
8:24 AM,19.4,15.8,86,29.78,1.8,SSW,5.8,-,0.00,Snow,Light Snow,210,2013-12-15 13:24:00
8:53 AM,19.9,16.0,85,29.83,1.2,SW,6.9,-,0.00,Snow,Light Snow,230,2013-12-15 13:53:00
9:16 AM,21.2,17.6,86,29.79,0.8,SW,8.1,-,0.00,Snow,Light Snow,220,2013-12-15 14:16:00
9:31 AM,21.2,17.6,86,29.79,1.2,SW,8.1,-,0.01,Snow,Light Snow,220,2013-12-15 14:31:00
9:53 AM,21.9,18.0,85,29.83,1.2,SW,9.2,-,0.01,Snow,Light Snow,230,2013-12-15 14:53:00
10:37 AM,24.8,19.4,80,29.79,0.8,West,12.7,18.4,0.01,Snow,Light Snow,260,2013-12-15 15:37:00
10:53 AM,24.1,19.0,81,29.83,1.5,West,10.4,-,0.01,Snow,Light Snow,260,2013-12-15 15:53:00
11:05 AM,24.8,17.6,74,29.79,1.8,West,15.0,-,0.00,Snow,Light Snow,270,2013-12-15 16:05:00
11:12 AM,24.8,17.6,74,29.79,2.0,West,16.1,-,0.00,Snow,Light Snow,270,2013-12-15 16:12:00
11:21 AM,23.0,17.6,80,29.79,2.0,West,18.4,24.2,0.00,Snow,Light Snow,280,2013-12-15 16:21:00
11:53 AM,21.9,16.0,78,29.83,1.8,WNW,20.7,29.9,0.00,Snow,Light Snow,290,2013-12-15 16:53:00
12:12 PM,21.2,15.8,80,29.78,2.5,West,17.3,-,0.00,Snow,Light Snow,280,2013-12-15 17:12:00
12:17 PM,21.2,15.8,80,29.78,4.0,West,16.1,-,0.00,Snow,Light Snow,270,2013-12-15 17:17:00
12:53 PM,21.9,10.9,63,29.81,10.0,West,20.7,-,0.00,,Overcast,270,2013-12-15 17:53:00
1:53 PM,21.9,12.0,66,29.82,5.0,West,20.7,32.2,N/A,,Haze,270,2013-12-15 18:53:00
2:32 PM,21.2,12.2,68,29.79,5.0,WNW,19.6,-,0.00,,Haze,290,2013-12-15 19:32:00
2:53 PM,19.9,10.9,68,29.84,4.0,West,24.2,32.2,0.00,,Haze,270,2013-12-15 19:53:00
3:03 PM,19.4,10.4,68,29.81,6.0,West,19.6,-,N/A,,Haze,280,2013-12-15 20:03:00
3:37 PM,19.4,8.6,63,29.82,10.0,West,20.7,-,N/A,,Mostly Cloudy,280,2013-12-15 20:37:00
3:53 PM,18.0,9.0,68,29.87,7.0,West,21.9,28.8,N/A,,Overcast,270,2013-12-15 20:53:00
4:19 PM,17.6,6.8,63,29.84,9.0,West,20.7,28.8,N/A,,Overcast,280,2013-12-15 21:19:00
4:53 PM,18.0,7.0,62,29.91,10.0,WNW,19.6,-,N/A,,Overcast,290,2013-12-15 21:53:00
5:09 PM,17.6,8.6,68,29.87,4.0,West,17.3,26.5,0.00,Snow,Light Snow,280,2013-12-15 22:09:00
5:37 PM,17.6,6.8,63,29.88,10.0,WNW,16.1,-,0.00,,Overcast,300,2013-12-15 22:37:00
5:53 PM,17.1,7.0,65,29.93,10.0,WNW,18.4,-,0.00,,Overcast,290,2013-12-15 22:53:00
6:53 PM,16.0,5.0,62,29.96,10.0,West,13.8,23.0,N/A,,Overcast,280,2013-12-15 23:53:00
7:53 PM,15.1,3.9,61,29.98,10.0,West,16.1,23.0,N/A,,Mostly Cloudy,260,2013-12-16 00:53:00
8:53 PM,14.0,3.9,64,30.00,10.0,West,12.7,-,N/A,,Mostly Cloudy,270,2013-12-16 01:53:00
9:53 PM,15.1,3.9,61,30.01,10.0,West,10.4,-,N/A,,Overcast,260,2013-12-16 02:53:00
10:53 PM,14.0,1.9,59,30.03,10.0,West,12.7,-,N/A,,Mostly Cloudy,260,2013-12-16 03:53:00
11:53 PM,12.0,1.0,61,30.04,10.0,WSW,9.2,-,N/A,,Clear,250,2013-12-16 04:53:00